Location: New Plymouth
(39.0670°S, 174.0830°E)
Time: 23:45:27
(UTC+13:00)

Resurs 01 Rocket - Pass Details

Date: 24 January 2019
Orbit: 635 x 643 km, 98.1° (Epoch: 21 February)

Event Time Altitude Azimuth Distance (km) Brightness Sun altitude
Rises 23:12:59 0° 179° (S) 2,978 5.9 -22.8°
Reaches altitude 10° 23:15:25 10° 190° (S) 2,059 5.1 -23.1°
Maximum altitude 23:19:17 29° 249° (WSW) 1,181 3.5 -23.6°
Drops below altitude 10° 23:23:07 10° 309° (NW) 2,033 4.1 -24.0°
Enters shadow 23:23:17 - 310° (NW) 2,092 4.2 -24.0°
